Tiempo atmosférico en la estación meteorológica de Valdezcaray, estación de esquí, La Rioja (1630 m.)



Fecha
DESCASC
Temp. máxima en grados centígrados (hora)
DESCASC
Temp. mínima en grados centígrados (hora)
DESCASC
Temp. media en grados centígrados
DESCASC
Racha de viento máxima en m/sg (hora)
DESCASC
Velocidad máxima media en intervalos de 10 minutos(hora)
DESCASC
Precipitaciones diarias en mm
DESCASC
Precipitaciones de 00:00 a 06:00 en mm
DESCASC
Precipitaciones de 06:00 a 12:00 en mm
DESCASC
Precipitaciones de 12:00 a 18:00 en mm
DESCASC
Precipitaciones de 18:00 a 24:00 en mm
DESCASC
16-01-2020 6.1 (05:50) 1.1 (22:50) 3.6 26.11 (21:20) 13.61 (23:59) 0.6 0 0 0 0.6
15-01-2020 4.9 (23:30) 1.6 (05:30) 3.3 19.17 (11:30) 10.28 (10:40) 0.2 0 0 0.2 0
14-01-2020 5.8 (10:50) 1.9 (22:20) 3.9 27.78 (21:00) 12.78 (20:10) 0 0 0 0 0
13-01-2020 7.7 (12:30) 1.6 (00:10) 4.6 13.89 (15:20) 6.11 (15:50) 0 0 0 0 0
12-01-2020 4.7 (14:30) -1.5 (-00:0) 1.6 5.83 (06:20) 4.17 (06:20) 0 0 0 0 0
11-01-2020 4.5 (12:50) -5.2 (-00:0) -0.3 5.83 (22:40) 4.72 (14:20) 0 0 0 0 0
10-01-2020 1.1 (00:00) -2.8 (-00:0) -0.8 10.83 (07:10) 5 (07:10) 3.4 0.4 0.2 1.8 1
09-01-2020 9.6 (13:00) 0.9 (00:00) 5.3 17.78 (19:00) 9.17 (19:00) 0 0 0 0 0
08-01-2020 11 (14:00) 3.7 (00:00) 7.4 5.83 (22:40) 4.17 (22:40) 0 0 0 0 0
07-01-2020 8.6 (13:30) 2.2 (00:00) 5.4 5.28 (03:40) 3.89 (03:40) 0 0 0 0 0
06-01-2020 10.9 (13:50) 2.7 (00:00) 6.8 6.94 (08:10) 4.44 (06:30) 0 0 0 0 0
05-01-2020 10.4 (14:00) 4.7 (00:00) 7.5 11.11 (07:10) 8.33 (00:10) 0 0 0 0 0
04-01-2020 8.5 (23:40) -1.6 (-00:0) 3.4 12.5 (23:40) 8.89 (23:40) 0 0 0 0 0
03-01-2020 9.1 (00:00) 1 (00:00) 5.1 10.83 (02:20) 5.56 (05:10) 3 0 0 0 3
02-01-2020 13.7 (13:00) 5.6 (00:00) 9.6 11.11 (20:40) 5.28 (23:40) 0 0 0 0 0
01-01-2020 12.8 (13:30) 5.3 (00:00) 9.1 5.28 (02:10) 4.17 (08:10) 0 0 0 0 0
31-12-2019 -- (--) -- (--) -- -- (--) -- (--) -- -- -- -- --
30-12-2019 -- (--) -- (--) -- -- (--) -- (--) -- 0 0 0 --
29-12-2019 13.2 (13:10) 5.4 (00:00) 9.3 6.94 (01:50) 5.56 (06:00) 0 0 0 0 0
28-12-2019 10.1 (11:10) 5.4 (00:00) 7.8 6.94 (05:20) 5.83 (05:20) 0 0 0 0 0
27-12-2019 9.5 (17:30) 5.4 (00:00) 7.5 6.11 (08:40) 5.28 (14:40) 0 0 0 0 0
26-12-2019 9.2 (00:00) 2.2 (00:00) 5.7 16.94 (01:50) 5.83 (01:20) 0 0 0 0 0
25-12-2019 13.6 (12:50) 6.2 (00:00) 9.9 17.22 (22:00) 9.17 (21:30) 0 0 0 0 0
24-12-2019 9.7 (23:00) 5.1 (00:00) 7.4 13.33 (00:50) 5 (01:20) 0 0 0 0 0
23-12-2019 7.4 (14:40) 0.2 (00:00) 3.8 16.39 (23:10) 8.89 (21:30) 0 0 0 0 0
22-12-2019 5.2 (14:10) 0.7 (00:00) 2.9 41.39 (13:40) 21.39 (13:00) 1.4 0 0 1.4 0
21-12-2019 8.5 (13:30) 1.5 (00:00) 5 50 (17:50) 27.22 (17:50) 8 0 3.6 3.6 0.8

Gráficas

Temp. máximas Temp. mínimas Temp. medias Precipitaciones Rachas de viento máximas Velocidades máximas media en intervalos de 10 minutos

Datos horarios

Fecha y hora oficial Temperatura (ºC) Velocidad del viento (km/h) Dirección del viento Racha (km/h) Dirección de racha Precipitación (mm) Presión (hPa) Tendencia (hPa) Humedad (%)
2020-01-19 23:00:00 -6.8 17 Noroeste 46 Oeste 0 -- -- 95
2020-01-19 22:00:00 -6.7 14 Noroeste 39 Noroeste 0 -- -- 96
2020-01-19 21:00:00 -6.2 21 Noroeste 44 Noroeste 0 -- -- 96
2020-01-19 20:00:00 -5.9 13 Noroeste 45 Noroeste 0 -- -- 96
2020-01-19 19:00:00 -5.9 18 Noroeste 60 Noroeste 0.2 -- -- 95
2020-01-19 18:00:00 -5.8 14 Noroeste 33 Oeste 0 -- -- 97
2020-01-19 17:00:00 -5.3 17 Noroeste 42 Norte 0 -- -- 97
2020-01-19 16:00:00 -5.1 13 Noroeste 38 Norte 0 -- -- 97
2020-01-19 15:00:00 -4.6 16 Noroeste 49 Noroeste 0 -- -- 97
2020-01-19 14:00:00 -4.3 12 Noroeste 41 Noroeste 0.2 -- -- 97
2020-01-19 13:00:00 -4.5 23 Noroeste 45 Noroeste 0.2 -- -- 97
2020-01-19 12:00:00 -3.8 13 Noroeste 35 Noroeste 0 -- -- 98
2020-01-19 11:00:00 -3.9 17 Noroeste 41 Noroeste 0 -- -- 99
2020-01-19 10:00:00 -3.9 13 Noroeste 29 Noroeste 0.2 -- -- 98
2020-01-19 09:00:00 -4 14 Noroeste 44 Noroeste 2 -- -- 98
2020-01-19 08:00:00 -2.6 11 Noroeste 30 Noroeste 2.4 -- -- 99
2020-01-19 07:00:00 -2 15 Noroeste 32 Noroeste 2.4 -- -- 100
2020-01-19 06:00:00 -1.9 8 Noroeste 15 Oeste 2.8 -- -- 100
2020-01-19 05:00:00 -2 5 Noroeste 14 Noroeste 2.8 -- -- 100
2020-01-19 04:00:00 -2 5 Noroeste 14 Noroeste 2.4 -- -- 100
2020-01-19 03:00:00 -1.6 8 Noroeste 14 Oeste 1.6 -- -- 100
2020-01-19 02:00:00 -1.6 6 Noroeste 15 Oeste 0.2 -- -- 100
2020-01-19 01:00:00 -1.6 5 Noroeste 13 Noroeste 0 -- -- 100
2020-01-19 00:00:00 -1.6 6 Noroeste 17 Noroeste 0 -- -- 100
2020-01-18 23:00:00 -1.6 7 Noroeste 18 Noroeste 0 -- -- 100
2020-01-18 22:00:00 -1.5 6 Noroeste 10 Oeste 1.4 -- -- 100
2020-01-18 21:00:00 -2 5 Noroeste 11 Noroeste 1.6 -- -- 99
2020-01-18 20:00:00 -1.9 10 Oeste 82 Oeste 3 -- -- 99
2020-01-18 19:00:00 3.1 30 Noroeste 87 Norte 1 -- -- 91
2020-01-18 18:00:00 3.9 39 Norte 72 Noroeste 0.6 -- -- 89
2020-01-18 17:00:00 4 10 Norte 114 Sudeste 0.2 -- -- 94
2020-01-18 16:00:00 4.8 46 Sudeste 88 Sudeste 0 -- -- 84
2020-01-18 15:00:00 4.7 41 Sudeste 75 Sur 0 -- -- 84
2020-01-18 14:00:00 4.1 40 Sudeste 80 Sudeste 0 -- -- 85
2020-01-18 13:00:00 3.3 31 Sudeste 90 Sur 0 -- -- 87
2020-01-18 12:00:00 3.2 40 Sudeste 73 Sur 0 -- -- 80
2020-01-18 11:00:00 2.7 30 Sudeste 55 Sur 0 -- -- 74
2020-01-18 10:00:00 1.7 37 Sur 73 Sur 0 -- -- 77
2020-01-18 09:00:00 2 17 Sudeste 65 Sur 0 -- -- 72
2020-01-18 08:00:00 1.5 14 Sur 49 Sur 0 -- -- 56
2020-01-18 07:00:00 1.2 13 Sudeste 46 Norte 0 -- -- 48
2020-01-18 06:00:00 1.6 12 Noroeste 31 Norte 0 -- -- 40
2020-01-18 05:00:00 1.4 9 Oeste 26 Oeste 0 -- -- 36
2020-01-18 04:00:00 2.1 13 Sudoeste 27 Sudoeste 0 -- -- 27
2020-01-18 03:00:00 2.4 4 Norte 20 Oeste 0 -- -- 28
2020-01-18 02:00:00 2.1 3 Este 31 Sur 0 -- -- 31
2020-01-18 01:00:00 1.5 14 Sudoeste 28 Sudoeste 0 -- -- 39
2020-01-18 00:00:00 1.9 9 Sudoeste 28 Sudoeste 0 -- -- 24
2020-01-17 23:00:00 0.4 18 Sudoeste 31 Sudoeste 0 -- -- 50
2020-01-17 22:00:00 -0.9 11 Sudoeste 19 Sudoeste 0 -- -- 75
2020-01-17 21:00:00 -0.6 11 Sudoeste 21 Sudoeste 0 -- -- 73
2020-01-17 20:00:00 -0.4 17 Sudoeste 30 Sudoeste 0 -- -- 73
2020-01-17 19:00:00 -0.7 12 Sudoeste 27 Oeste 0 -- -- 76
2020-01-17 18:00:00 -0.3 9 Oeste 27 Noroeste 0 -- -- 76
2020-01-17 17:00:00 0.3 12 Noroeste 30 Noroeste 0 -- -- 72
2020-01-17 16:00:00 0.8 14 Noroeste 36 Noroeste 0 -- -- 72
2020-01-17 15:00:00 1.2 18 Noroeste 46 Noroeste 0 -- -- 63
2020-01-17 14:00:00 1.1 19 Noroeste 41 Noroeste 0 -- -- 67
2020-01-17 13:00:00 1.1 16 Noroeste 58 Norte 0 -- -- 76
2020-01-17 12:00:00 1 23 Norte 55 Norte 0 -- -- 78
2020-01-17 11:00:00 0.8 26 Norte 56 Norte 0 -- -- 81
2020-01-17 10:00:00 1 34 Norte 65 Noroeste 0 -- -- 82
2020-01-17 09:00:00 1 27 Norte 67 Norte 0.2 -- -- 95
2020-01-17 08:00:00 1.1 41 Norte 84 Norte 0 -- -- 98
2020-01-17 07:00:00 1 36 Norte 71 Norte 0.4 -- -- 97
2020-01-17 06:00:00 1.2 18 Norte 56 Noroeste 0 -- -- 94
2020-01-17 05:00:00 1.1 33 Norte 58 Norte 0 -- -- 94
2020-01-17 04:00:00 1.5 24 Sudeste 75 Sudeste 0 -- -- 87
2020-01-17 03:00:00 1.8 44 Sudeste 98 Sur 0 -- -- 91
2020-01-17 02:00:00 2.2 41 Sudeste 95 Sur 0.4 -- -- 85
2020-01-17 01:00:00 1.7 39 Sudeste 106 Sur 0.2 -- -- 92
2020-01-17 00:00:00 1.8 49 Sudeste 91 Sudeste 0.4 -- -- 88
2020-01-16 23:00:00 1.5 37 Sudeste 89 Sur 0.2 -- -- 89
2020-01-16 22:00:00 3.3 40 Sudeste 94 Sur 0 -- -- 67
2020-01-16 21:00:00 3.6 44 Sudeste 80 Sur 0 -- -- 63
2020-01-16 20:00:00 4 28 Sudeste 73 Sudeste 0 -- -- 65
2020-01-16 19:00:00 4.4 23 Sudeste 45 Sur 0 -- -- 70
2020-01-16 18:00:00 5.1 21 Sudeste 55 Sudeste 0 -- -- 68
2020-01-16 17:00:00 5.7 27 Sudeste 70 Sudeste 0 -- -- 73
2020-01-16 16:00:00 5.6 39 Sudeste 73 Sudeste 0 -- -- 74
2020-01-16 15:00:00 5.8 37 Sudeste 80 Sur 0 -- -- 75
2020-01-16 14:00:00 5.7 23 Sudeste 58 Sudeste 0 -- -- 77
2020-01-16 13:00:00 5.3 27 Sudeste 58 Sur 0 -- -- 79
2020-01-16 12:00:00 5.2 24 Sudeste 63 Sur 0 -- -- 80
2020-01-16 11:00:00 4.7 28 Sudeste 62 Sudeste 0 -- -- 84
2020-01-16 10:00:00 4.8 34 Sudeste 68 Sudeste 0 -- -- 82
2020-01-16 09:00:00 4.8 26 Sudeste 65 Sur 0 -- -- 81
2020-01-16 08:00:00 5.1 26 Sudeste 65 Sur 0 -- -- 80
2020-01-16 07:00:00 4.9 21 Sudeste 63 Sudeste 0 -- -- 82
2020-01-16 06:00:00 5.8 35 Sudeste 78 Sudeste 0 -- -- 70
2020-01-16 05:00:00 5.1 20 Sudeste 59 Sudeste 0 -- -- 80
2020-01-16 04:00:00 4.9 14 Sudeste 55 Sur 0 -- -- 81
2020-01-16 03:00:00 4.8 12 Nordeste 55 Sur 0 -- -- 80
2020-01-16 02:00:00 4.6 15 Oeste 52 Sudeste 0 -- -- 77
2020-01-16 01:00:00 4.1 14 Sur 50 Sur 0 -- -- 82
2020-01-16 00:00:00 4.1 10 Sudeste 60 Sur 0 -- -- 75
2020-01-15 23:00:00 4.1 10 Oeste 48 Sudeste 0 -- -- 79
2020-01-15 22:00:00 4.1 16 Noroeste 48 Sur 0 -- -- 79
2020-01-15 21:00:00 3.5 16 Nordeste 35 Sudeste 0 -- -- 79
2020-01-15 20:00:00 3 10 Este 40 Sur 0 -- -- 80
2020-01-15 19:00:00 3 23 Sur 49 Norte 0 -- -- 79
2020-01-15 18:00:00 3.1 14 Noroeste 64 Noroeste 0 -- -- 84
2020-01-15 17:00:00 2.8 16 Noroeste 50 Sur 0 -- -- 90
2020-01-15 16:00:00 2.5 12 Nordeste 49 Sudeste 0.2 -- -- 95
2020-01-15 15:00:00 2.5 13 Sudeste 42 Sudeste 0 -- -- 95
2020-01-15 14:00:00 2.5 6 Sudeste 50 Nordeste 0 -- -- 94
2020-01-15 13:00:00 2.1 31 Norte 64 Norte 0 -- -- 93
2020-01-15 12:00:00 2.6 22 Norte 69 Norte 0 -- -- 90
2020-01-15 11:00:00 3.2 32 Norte 64 Norte 0 -- -- 83
2020-01-15 10:00:00 2.2 26 Norte 69 Noroeste 0 -- -- 88
2020-01-15 09:00:00 2.3 33 Norte 55 Noroeste 0 -- -- 82
2020-01-15 08:00:00 2 26 Norte 59 Norte 0 -- -- 76
2020-01-15 07:00:00 2 19 Norte 57 Sur 0 -- -- 73
2020-01-15 06:00:00 2 12 Noroeste 56 Sudeste 0 -- -- 76
2020-01-15 05:00:00 1.9 24 Sudeste 62 Sur 0 -- -- 82
2020-01-15 04:00:00 1.7 9 Norte 41 Este 0 -- -- 91
2020-01-15 03:00:00 2.3 23 Sudeste 59 Norte 0 -- -- 89
2020-01-15 02:00:00 1.9 14 Este 48 Sur 0 -- -- 94
2020-01-15 01:00:00 2.3 14 Norte 57 Norte 0 -- -- 89
2020-01-15 00:00:00 2.5 21 Norte 62 Sur 0 -- -- 85
2020-01-14 23:00:00 2.1 22 Norte 57 Este 0 -- -- 83
2020-01-14 22:00:00 2.3 21 Este 71 Noroeste 0 -- -- 80
2020-01-14 21:00:00 2.8 31 Sudeste 100 Sudeste 0 -- -- 71
2020-01-14 20:00:00 2.2 42 Sudeste 87 Sur 0 -- -- 70
2020-01-14 19:00:00 2.9 21 Sudeste 75 Sur 0 -- -- 60
2020-01-14 18:00:00 4.6 32 Sudeste 81 Sur 0 -- -- 45
2020-01-14 17:00:00 3.2 9 Nordeste 61 Sur 0 -- -- 58
2020-01-14 16:00:00 4 11 Sur 44 Sudeste 0 -- -- 49
2020-01-14 15:00:00 4.5 6 Nordeste 26 Sur 0 -- -- 52
2020-01-14 14:00:00 4.4 7 Noroeste 26 Noroeste 0 -- -- 47
2020-01-14 13:00:00 3.8 11 Norte 34 Norte 0 -- -- 43
2020-01-14 12:00:00 5.8 12 Norte 42 Norte 0 -- -- 28
2020-01-14 11:00:00 5.8 17 Sur 46 Norte 0 -- -- 33
2020-01-14 10:00:00 5 12 Sur 39 Noroeste 0 -- -- 48
2020-01-14 09:00:00 4.6 13 Sudoeste 38 Sur 0 -- -- 55
2020-01-14 08:00:00 5 12 Oeste 33 Sudoeste 0 -- -- 48
2020-01-14 07:00:00 3.9 12 Sur 46 Sudoeste 0 -- -- 66
2020-01-14 06:00:00 3.3 16 Nordeste 44 Norte 0 -- -- 70
2020-01-14 05:00:00 3.1 16 Nordeste 38 Sudeste 0 -- -- 75
2020-01-14 04:00:00 3.3 18 Nordeste 50 Norte 0 -- -- 66
2020-01-14 03:00:00 3.2 16 Norte 49 Nordeste 0 -- -- 51
2020-01-14 02:00:00 3.2 14 Oeste 41 Nordeste 0 -- -- 57
2020-01-14 01:00:00 3.5 10 Sur 36 Norte 0 -- -- 39
2020-01-14 00:00:00 3.6 12 Este 44 Nordeste 0 -- -- 21
2020-01-13 23:00:00 3.8 14 Norte 36 Norte 0 -- -- 18
2020-01-13 22:00:00 3.8 16 Norte 35 Norte 0 -- -- 16
2020-01-13 21:00:00 4.2 20 Norte 44 Nordeste 0 -- -- 18
2020-01-13 20:00:00 3.2 7 Nordeste 28 Noroeste 0 -- -- 27
2020-01-13 19:00:00 2.4 6 Sur 28 Sur 0 -- -- 30
2020-01-13 18:00:00 4.6 7 Noroeste 37 Sur 0 -- -- 23
2020-01-13 17:00:00 4.5 8 Norte 37 Norte 0 -- -- 22
2020-01-13 16:00:00 5.6 13 Norte 50 Sudoeste 0 -- -- 27
2020-01-13 15:00:00 5.4 16 Nordeste 47 Sur 0 -- -- 18
2020-01-13 14:00:00 5.7 14 Nordeste 40 Sudoeste 0 -- -- 17
2020-01-13 13:00:00 6.7 12 Sudoeste 41 Sur 0 -- -- 14
2020-01-13 12:00:00 6.9 19 Sudeste 45 Sur 0 -- -- 12
2020-01-13 11:00:00 6.1 11 Este 38 Sudoeste 0 -- -- 16
2020-01-13 10:00:00 5.7 8 Sudoeste 31 Sur 0 -- -- 19
2020-01-13 09:00:00 5.7 12 Sudoeste 32 Norte 0 -- -- 23
2020-01-13 08:00:00 5.3 6 Norte 21 Sudeste 0 -- -- 36
2020-01-13 07:00:00 5.9 9 Sur 25 Norte 0 -- -- 36
2020-01-13 06:00:00 6 12 Sur 28 Norte 0 -- -- 32
2020-01-13 05:00:00 6 7 Noroeste 21 Norte 0 -- -- 27
2020-01-13 04:00:00 4.5 6 Noroeste 18 Sudoeste 0 -- -- 31
2020-01-13 03:00:00 3.6 10 Sudeste 14 Sur 0 -- -- 31
2020-01-13 02:00:00 3.2 7 Sudeste 13 Sur 0 -- -- 33
2020-01-13 01:00:00 3.6 8 Sudeste 13 Sudeste 0 -- -- 28
2020-01-13 00:00:00 2.9 7 Sudeste 13 Sur 0 -- -- 35
2020-01-12 23:00:00 3.4 6 Sudeste 10 Sudeste 0 -- -- 36
2020-01-12 22:00:00 3.9 7 Sudeste 13 Sudeste 0 -- -- 39
2020-01-12 21:00:00 3.3 9 Sudeste 14 Sur 0 -- -- 40
2020-01-12 20:00:00 1.8 8 Sudeste 12 Sur 0 -- -- 45
2020-01-12 19:00:00 -0.4 5 Sudeste 9 Este 0 -- -- 54
2020-01-12 18:00:00 -0.3 6 Sudeste 17 Sur 0 -- -- 51
2020-01-12 17:00:00 0.5 6 Sur 13 Sur 0 -- -- 46
2020-01-12 16:00:00 0.7 6 Sur 14 Sur 0 -- -- 47
2020-01-12 15:00:00 2.6 4 Sur 12 Sur 0 -- -- 47
2020-01-12 14:00:00 3.4 9 Sur 16 Sur 0 -- -- 40
2020-01-12 13:00:00 1.5 15 Sur 19 Sur 0 -- -- 42
2020-01-12 12:00:00 1.7 6 Sur 11 Sur 0 -- -- 40
2020-01-12 11:00:00 1.5 2 Sudeste 16 Sur 0 -- -- 33
2020-01-12 10:00:00 2.2 12 Sur 17 Sur 0 -- -- 22
2020-01-12 09:00:00 2.6 8 Este 18 Sudeste 0 -- -- 13
2020-01-12 08:00:00 2.2 13 Sudeste 17 Sudeste 0 -- -- 16
2020-01-12 07:00:00 2.7 8 Este 21 Sur 0 -- -- 16
2020-01-12 06:00:00 1.8 12 Sudeste 19 Sudeste 0 -- -- 22
2020-01-12 05:00:00 -0.5 8 Sur 16 Sur 0 -- -- 37
2020-01-12 04:00:00 -0.2 6 Sudeste 9 Sudeste 0 -- -- 36
2020-01-12 03:00:00 1.3 4 Este 14 Sudeste 0 -- -- 26
2020-01-12 02:00:00 2.8 10 Este 17 Este 0 -- -- 25
2020-01-12 01:00:00 2.6 13 Este 19 Este 0 -- -- 26
2020-01-12 00:00:00 2.8 12 Este 20 Este 0 -- -- 28
2020-01-11 23:00:00 2.6 12 Este 21 Sur 0 -- -- 29
2020-01-11 22:00:00 2.7 9 Sudeste 17 Sudeste 0 -- -- 27
2020-01-11 21:00:00 1.3 12 Sudeste 15 Este 0 -- -- 27
2020-01-11 20:00:00 -0.3 8 Sudeste 14 Sur 0 -- -- 45
2020-01-11 19:00:00 2.1 12 Este 20 Este 0 -- -- 36
2020-01-11 18:00:00 1.8 5 Sudeste 15 Este 0 -- -- 35
2020-01-11 17:00:00 2.9 4 Este 13 Este 0 -- -- 40
2020-01-11 16:00:00 -0.2 7 Sur 15 Sur 0 -- -- 54
2020-01-11 15:00:00 -0.7 11 Sur 20 Sur 0 -- -- 42
2020-01-11 14:00:00 0.9 15 Sur 18 Sudoeste 0 -- -- 39
2020-01-11 13:00:00 2.3 4 Sur 11 Este 0 -- -- 44
2020-01-11 12:00:00 2.5 4 Este 16 Sudeste 0 -- -- 56
2020-01-11 11:00:00 0 14 Sudeste 19 Este 0 -- -- 51
2020-01-11 10:00:00 -2.1 10 Sudeste 16 Sudeste 0 -- -- 71
2020-01-11 09:00:00 -2.8 11 Este 19 Sudeste 0 -- -- 84
2020-01-11 08:00:00 -4.5 5 Sudeste 17 Este 0 -- -- 90
2020-01-11 07:00:00 -3.6 12 Sudeste 19 Este 0 -- -- 95
2020-01-11 06:00:00 -4.9 6 Este 15 Este 0 -- -- 94
2020-01-11 05:00:00 -4 9 Sudeste 14 Sudeste 0 -- -- 96
2020-01-11 04:00:00 -4.1 9 Sur 12 Sur 0 -- -- 98
2020-01-11 03:00:00 -3.9 6 Este 11 Sur 0 -- -- 99
2020-01-11 02:00:00 -3.7 6 Sudeste 10 Este 0 -- -- 99
2020-01-11 01:00:00 -3.4 5 Sudeste 9 Sur 0 -- -- 98
2020-01-11 00:00:00 -2.3 5 Sur 13 Noroeste 0 -- -- 100
2020-01-10 23:00:00 -1.9 4 Noroeste 15 Norte 0 -- -- 100
2020-01-10 22:00:00 -1.9 5 Noroeste 17 Noroeste 0.2 -- -- 100
2020-01-10 21:00:00 -1.7 2 Noroeste 12 Noroeste 0.6 -- -- 100
2020-01-10 20:00:00 -1.9 6 Noroeste 21 Norte 0.2 -- -- 100
2020-01-10 19:00:00 -1.9 9 Noroeste 31 Noroeste 0 -- -- 100
2020-01-10 18:00:00 -1.9 10 Noroeste 34 Noroeste 0.2 -- -- 100
2020-01-10 17:00:00 -1.2 9 Norte 26 Noroeste 0.8 -- -- 100
2020-01-10 16:00:00 -1.2 10 Norte 30 Norte 0 -- -- 100
2020-01-10 15:00:00 -1.3 8 Noroeste 18 Noroeste 0.4 -- -- 100
2020-01-10 14:00:00 -1.5 7 Norte 19 Norte 0.2 -- -- 100
2020-01-10 13:00:00 -2.1 10 Noroeste 23 Oeste 0.2 -- -- 100
2020-01-10 12:00:00 -1.9 5 Noroeste 19 Noroeste 0.2 -- -- 99
2020-01-10 11:00:00 -2.3 5 Noroeste 18 Noroeste 0 -- -- 99
2020-01-10 10:00:00 -2.6 9 Noroeste 18 Noroeste 0 -- -- 99
2020-01-10 09:00:00 -2.7 8 Noroeste 20 Norte 0 -- -- 99
2020-01-10 08:00:00 -2.6 12 Noroeste 39 Noroeste 0 -- -- 99
2020-01-10 07:00:00 -2.1 14 Noroeste 31 Noroeste 0 -- -- 99
2020-01-10 06:00:00 -2 9 Noroeste 35 Norte 0 -- -- 99
2020-01-10 05:00:00 -2 8 Noroeste 16 Noroeste 0 -- -- 99
2020-01-10 04:00:00 -1.7 8 Noroeste 15 Noroeste 0 -- -- 99
2020-01-10 03:00:00 -1.8 9 Noroeste 26 Oeste 0 -- -- 99
2020-01-10 02:00:00 -1.6 12 Noroeste 31 Noroeste 0.4 -- -- 99
2020-01-10 01:00:00 0 12 Noroeste 22 Noroeste 0 -- -- 97
2020-01-10 00:00:00 1.1 11 Noroeste 23 Norte 0 -- -- 84
2020-01-09 23:00:00 1.7 10 Noroeste 19 Noroeste 0 -- -- 91
2020-01-09 22:00:00 2.5 14 Norte 30 Noroeste 0 -- -- 92
2020-01-09 21:00:00 4.2 18 Norte 45 Norte 0 -- -- 85
2020-01-09 20:00:00 4.3 21 Norte 63 Norte 0 -- -- 85
2020-01-09 19:00:00 4.2 33 Norte 64 Norte 0 -- -- 85
2020-01-09 18:00:00 4.5 19 Norte 57 Nordeste 0 -- -- 92
2020-01-09 17:00:00 5.7 20 Norte 50 Norte 0 -- -- 81
2020-01-09 16:00:00 7.4 8 Oeste 41 Norte 0 -- -- 68
2020-01-09 15:00:00 8.1 11 Norte 47 Nordeste 0 -- -- 55
2020-01-09 14:00:00 5.9 11 Sudoeste 37 Sudoeste 0 -- -- 84
2020-01-09 13:00:00 9.6 7 Oeste 35 Sur 0 -- -- 60
2020-01-09 12:00:00 8.1 10 Sur 33 Oeste 0 -- -- 51
2020-01-09 11:00:00 8.6 11 Noroeste 33 Sudoeste 0 -- -- 58
2020-01-09 10:00:00 7.4 7 Sudeste 22 Sudoeste 0 -- -- 68
2020-01-09 09:00:00 5.8 8 Sudoeste 17 Oeste 0 -- -- 78
2020-01-09 08:00:00 7.8 7 Sudoeste 18 Noroeste 0 -- -- 62
2020-01-09 07:00:00 7.1 10 Sudoeste 22 Sudoeste 0 -- -- 63
2020-01-09 06:00:00 5.6 7 Sudoeste 13 Este 0 -- -- 67
2020-01-09 05:00:00 6.8 6 Sudeste 17 Sur 0 -- -- 59
2020-01-09 04:00:00 6.5 7 Sudeste 18 Sur 0 -- -- 54
2020-01-09 03:00:00 5.9 10 Sur 17 Sur 0 -- -- 63
2020-01-09 02:00:00 5.1 8 Sur 15 Sudoeste 0 -- -- 62
2020-01-09 01:00:00 6.5 10 Sudeste 15 Sur 0 -- -- 58
2020-01-09 00:00:00 5.7 12 Sur 17 Sur 0 -- -- 59
2020-01-08 23:00:00 6.3 14 Sur 21 Sur 0 -- -- 62
2020-01-08 22:00:00 6.3 14 Sur 19 Sur 0 -- -- 73
2020-01-08 21:00:00 6.5 9 Sudeste 14 Sudeste 0 -- -- 74
2020-01-08 20:00:00 6.2 8 Sudeste 17 Sur 0 -- -- 79
2020-01-08 19:00:00 6.7 13 Sur 16 Sur 0 -- -- 75
2020-01-08 18:00:00 7.2 6 Sudeste 12 Sudeste 0 -- -- 76
2020-01-08 17:00:00 5.5 8 Sur 13 Sur 0 -- -- 80
2020-01-08 16:00:00 6.4 8 Sur 14 Sur 0 -- -- 76
2020-01-08 15:00:00 7.8 3 Sur 10 Sudoeste 0 -- -- 68
2020-01-08 14:00:00 11 0 Calma 7 Sur 0 -- -- 59
2020-01-08 13:00:00 9.5 2 Oeste 6 Noroeste 0 -- -- 69
2020-01-08 12:00:00 6.8 2 Sur 6 Sudeste 0 -- -- 84
2020-01-08 11:00:00 4.2 3 Sudeste 6 Este 0 -- -- 95
2020-01-08 10:00:00 4.4 4 Sudeste 9 Sur 0 -- -- 93
2020-01-08 09:00:00 4.1 5 Oeste 13 Noroeste 0 -- -- 92
2020-01-08 08:00:00 4.6 5 Sudeste 16 Sudeste 0 -- -- 95
2020-01-08 07:00:00 4.8 9 Este 17 Sudeste 0 -- -- 91
2020-01-08 06:00:00 5.2 9 Sudeste 12 Sudeste 0 -- -- 90
2020-01-08 05:00:00 5.2 6 Sudeste 14 Sudeste 0 -- -- 88
2020-01-08 04:00:00 5.7 7 Sudeste 14 Este 0 -- -- 80
2020-01-08 03:00:00 5.6 8 Este 14 Este 0 -- -- 72
2020-01-08 02:00:00 5.5 8 Este 14 Sudeste 0 -- -- 61
2020-01-08 01:00:00 4.7 6 Este 14 Sudeste 0 -- -- 45
2020-01-08 00:00:00 5 8 Sudeste 14 Sudeste 0 -- -- 39
2020-01-07 23:00:00 4.7 13 Sur 17 Sur 0 -- -- 30
2020-01-07 22:00:00 5.7 11 Sudeste 16 Sudeste 0 -- -- 23
2020-01-07 21:00:00 5.1 8 Sudeste 16 Sudeste 0 -- -- 30
2020-01-07 20:00:00 6 8 Este 15 Sudeste 0 -- -- 26
2020-01-07 19:00:00 4.7 6 Este 10 Sudeste 0 -- -- 33
2020-01-07 18:00:00 3.3 6 Sudeste 12 Sur 0 -- -- 51
2020-01-07 17:00:00 3.4 8 Sur 12 Sur 0 -- -- 52
2020-01-07 16:00:00 4.2 5 Sur 15 Sur 0 -- -- 46
2020-01-07 15:00:00 4.8 12 Sur 16 Sur 0 -- -- 38
2020-01-07 14:00:00 7.4 10 Sur 15 Sur 0 -- -- 31
2020-01-07 13:00:00 7.8 11 Sur 17 Sudeste 0 -- -- 30
2020-01-07 12:00:00 7.3 13 Sudeste 17 Sur 0 -- -- 27
2020-01-07 11:00:00 5.8 9 Sudeste 14 Sudeste 0 -- -- 29
2020-01-07 10:00:00 5.1 8 Sudeste 14 Sur 0 -- -- 27
2020-01-07 09:00:00 3.5 11 Sur 16 Sudeste 0 -- -- 29
2020-01-07 08:00:00 5.5 10 Sudeste 15 Sudeste 0 -- -- 18
2020-01-07 07:00:00 2.4 9 Sudeste 15 Sur 0 -- -- 29
2020-01-07 06:00:00 4.4 9 Sudeste 15 Sudeste 0 -- -- 23
2020-01-07 05:00:00 6 10 Sudeste 16 Sudeste 0 -- -- 16
2020-01-07 04:00:00 6.1 10 Sudeste 19 Sudeste 0 -- -- 17
2020-01-07 03:00:00 5.5 10 Sudeste 16 Sudeste 0 -- -- 20
2020-01-07 02:00:00 5.5 12 Sudeste 17 Sudeste 0 -- -- 19
2020-01-07 01:00:00 4.8 6 Este 16 Este 0 -- -- 24
2020-01-07 00:00:00 3.2 8 Sudeste 13 Sur 0 -- -- 41
2020-01-06 23:00:00 3.8 2 Este 15 Este 0 -- -- 40
2020-01-06 22:00:00 4.5 9 Este 14 Este 0 -- -- 38
2020-01-06 21:00:00 5.5 10 Este 18 Sudeste 0 -- -- 33
2020-01-06 20:00:00 4 11 Sur 15 Sur 0 -- -- 37
2020-01-06 19:00:00 4.6 4 Sudeste 12 Oeste 0 -- -- 42
2020-01-06 18:00:00 6.5 6 Sudoeste 15 Sudeste 0 -- -- 33
2020-01-06 17:00:00 5.8 9 Sudeste 13 Sur 0 -- -- 44
2020-01-06 16:00:00 4.8 6 Sur 15 Sur 0 -- -- 47
2020-01-06 15:00:00 5.3 5 Sudoeste 14 Sur 0 -- -- 44
2020-01-06 14:00:00 9.5 8 Sur 18 Noroeste 0 -- -- 27
2020-01-06 13:00:00 9.5 5 Sur 14 Sudoeste 0 -- -- 27
2020-01-06 12:00:00 7 10 Sur 19 Sudoeste 0 -- -- 28
2020-01-06 11:00:00 5.3 7 Sudoeste 13 Sudoeste 0 -- -- 23
2020-01-06 10:00:00 5.8 4 Sudeste 14 Oeste 0 -- -- 17